Dewpoint
3 4 4 4 3 -4 -9 2 0 -4 -5 -5 -5 -5 -4 -1 -1 3 4 4 3 5 5 5 7 6 3 8 8 8 10 9 7 4 3 2 4 4 5 6 6 7 12 13 14
4 4 4 4 3 -1 -6 -7 2 -1 -5 -6 -6 -4 -4 1 3 3 3 2 0 4 7 6 6 5 7 6 8 8 10 8 4 6 4 2 3 3 5 6 5 9 12 14 14
4 4 3 3 3 -3 -6 -7 -6 -1 -5 -7 -7 -5 -3 0 2 3 2 2 3 5 5 6 6 4 7 6 9 8 8 6 4 6 6 4 1 2 4 6 5 6 12 14 14
3 4 3 1 3 2 -4 -7 -7 -7 -6 -6 -7 -7 -2 2 3 -1 1 1 2 4 6 6 5 5 4 7 7 9 7 6 6 6 6 6 3 3 2 5 5 7 11 14 14
-2 3 3 3 -2 2 -3 -4 -8 -7 -8 -8 -8 -4 -0 -1 -0 1 1 2 2 4 6 5 5 3 2 5 6 7 6 6 7 7 7 6 5 3 5 5 5 6 10 12 13
-8 -2 3 3 -6 -5 -4 -7 -6 -3 -8 -8 -7 -1 0 -2 0 1 1 3 4 5 6 6 5 4 2 2 6 6 5 7 7 7 5 5 5 4 5 5 5 5 6 9 13
-10 -12 -1 1 -6 -6 -6 -6 -2 -1 -6 -5 -8 -1 -2 -1 1 1 2 3 3 5 6 5 5 5 3 0 4 5 6 7 9 7 5 5 6 6 4 5 4 5 5 6 7
-6 -16 -3 -1 -5 -7 -7 -5 -3 -2 -6 -6 -3 1 -2 -1 0 1 3 2 4 6 5 3 4 4 4 2 2 6 7 8 6 5 6 5 6 4 3 4 4 4 4 4 6
-8 -15 -3 -2 -4 -6 -7 -5 -0 0 -6 -1 -1 -0 -2 -1 0 2 3 3 5 3 3 2 2 5 4 4 4 4 7 8 7 7 6 6 5 1 3 2 3 3 2 3 4
-9 -14 -3 -2 -4 -6 -6 -5 -2 0 -1 0 -1 -1 -1 -0 1 2 3 4 4 3 1 2 5 5 4 6 7 5 3 3 6 7 5 7 5 2 0 3 3 3 3 2 3
-10 -12 -2 -2 -3 -5 -5 -1 2 0 0 -0 0 -1 -0 1 2 3 3 3 3 3 4 4 6 6 3 2 -1 0 1 1 2 5 6 4 4 3 1 3 3 3 2 2 1
-9 -11 -2 -1 -3 -4 -3 0 -1 1 1 -0 -0 0 1 2 2 2 3 2 3 4 4 5 6 2 0 0 0 2 0 0 3 4 6 3 3 1 0 1 3 3 2 1 1
-8 -9 -2 -0 -2 -2 1 -1 -2 1 3 1 1 -1 1 2 2 3 3 2 0 2 3 5 5 2 2 1 3 3 3 3 4 2 1 2 3 1 -1 -1 -1 1 1 1 1
-8 -5 -1 0 3 1 2 -2 -4 1 4 1 -1 1 1 1 2 3 3 3 0 2 3 4 3 3 3 3 2 4 0 4 4 3 5 2 5 1 0 -0 -1 -0 0 1 1
-8 -2 1 1 2 3 2 -2 -4 1 6 1 1 -1 2 1 1 3 1 3 1 1 3 5 4 4 4 1 0 2 1 3 4 3 3 4 5 1 -2 1 -0 -1 -0 0 1
-9 -1 1 2 3 2 -0 -1 -1 5 4 3 1 1 1 -0 -0 2 2 3 2 0 2 3 3 4 2 1 -0 2 3 2 2 3 7 5 4 3 -1 -2 -2 -2 -1 -1 0
-5 1 2 3 4 -1 -1 2 6 7 1 3 1 0 0 0 -0 0 2 2 4 5 5 4 4 2 3 5 3 3 4 7 7 7 6 -0 3 2 -2 -4 -4 -3 -3 -2 -1
-1 2 2 3 -0 -1 2 3 6 2 4 1 1 1 2 -0 0 -0 0 1 2 2 5 4 6 5 3 4 4 4 4 6 5 5 2 -1 3 -1 -6 -5 -4 -4 -4 -3 -2
1 1 3 2 0 2 4 6 5 5 3 1 1 2 3 1 1 0 0 1 -0 1 5 5 4 2 2 1 2 3 4 2 7 3 3 2 -1 -4 -6 -4 -4 -3 -3 -2 -3
1 4 4 3 1 3 4 5 3 -0 -0 1 2 1 1 2 3 2 1 -2 -1 -2 -0 5 6 4 4 3 3 5 3 5 5 5 3 -3 -4 -2 -5 -5 -3 -5 -4 -3 -3
2 5 4 2 2 4 3 4 0 -0 0 1 1 -0 -1 -1 3 2 1 -1 -3 -2 -1 4 6 6 5 5 5 6 7 6 3 2 3 2 -0 -5 -4 -4 -3 -2 -1 -1 -1
4 5 2 1 5 4 6 1 -0 -1 0 1 1 1 1 -1 -1 -1 2 -1 0 1 2 1 5 6 6 4 2 2 4 5 7 5 3 3 2 -6 -5 -5 -4 -0 1 1 -0
4 4 1 3 7 6 -1 -3 -1 0 0 1 1 -1 -2 -1 -0 -3 -3 -1 1 3 4 2 5 7 7 6 4 6 4 3 4 5 5 4 2 -5 -5 -5 -4 -2 -3 -2 -0
1 3 -0 1 -0 -2 -4 -5 -3 -1 0 -1 -1 -2 -1 -1 -4 -2 -3 -2 -0 1 3 4 5 3 3 4 4 6 5 3 5 7 4 5 2 -2 -3 -3 -4 -2 -3 -3 -3
-1 0 -1 2 -2 -3 -5 -5 -6 -4 -1 -2 -1 -1 -4 -1 -3 -5 -8 -8 -3 2 1 3 5 5 3 1 4 5 4 4 6 6 5 3 3 -0 -2 -3 -4 -4 -3 -3 -3
-4 -5 -8 -5 -6 -5 -3 -5 -5 -6 -2 -7 -4 -7 -5 -4 -6 -5 -4 -4 -2 2 3 2 5 4 6 5 5 5 3 3 3 4 4 3 3 -1 -1 -1 -2 -2 -3 -3 -2
-5 -7 -9 -6 -6 -7 -6 -7 -6 -5 -8 -7 -6 -6 -6 -5 -4 -5 -5 -5 -1 1 1 2 3 4 6 5 5 6 5 3 2 1 2 5 2 -1 -1 -2 -2 -3 -3 -3 -2
Wind_Speed
14 17 15 15 14 15 13 12 14 14 13 14 15 14 12 10 5 5 5 8 14 5 2 12 13 14 16 15 19 8 4 9 16 8 9 18 6 3 8 12 15 8 10 14 15
15 16 15 16 13 14 14 11 12 12 12 13 15 14 10 7 7 4 6 8 15 6 5 12 11 19 10 12 12 7 4 8 12 7 15 15 15 11 8 9 11 15 9 12 16
14 15 18 12 17 13 14 13 12 11 11 13 14 12 9 7 9 10 16 7 12 5 6 8 13 17 11 10 2 5 5 10 2 18 11 2 15 14 15 7 13 9 9 13 17
15 15 16 13 11 14 14 13 13 12 11 11 12 12 8 8 3 13 14 6 17 5 5 6 12 15 12 10 8 2 14 15 10 9 3 5 8 7 6 12 14 11 8 15 17
16 16 15 14 10 11 12 13 13 13 11 10 10 10 11 7 8 14 15 3 10 7 5 8 10 10 10 11 12 9 7 12 8 10 11 11 6 6 17 17 13 12 10 12 17
18 16 14 14 10 10 10 11 11 14 10 9 7 7 8 9 10 10 9 7 3 6 8 6 4 2 5 17 16 16 12 16 9 5 7 8 8 0 20 15 11 11 12 11 13
17 17 14 13 8 8 8 9 11 15 8 9 6 9 9 7 9 10 7 6 8 2 4 5 5 4 11 4 20 19 12 12 13 21 4 6 8 6 9 18 13 10 10 10 10
17 16 14 12 7 6 6 8 12 13 7 8 9 10 3 10 10 12 10 6 4 6 5 5 3 6 5 3 4 13 11 3 6 6 4 4 13 7 16 14 13 15 14 11 10
17 15 13 11 6 4 5 4 15 15 7 10 9 4 4 8 10 10 7 5 8 7 6 4 2 6 4 1 3 6 4 9 5 13 4 8 5 11 25 22 18 17 17 17 13
17 13 10 10 4 2 4 3 7 17 9 6 8 3 10 10 9 10 9 6 8 10 6 7 10 5 1 4 8 10 14 13 11 11 10 9 10 10 11 11 8 11 16 19 20
16 12 9 8 3 1 4 5 4 3 14 7 6 5 7 8 7 6 8 7 8 10 4 5 2 5 8 11 5 7 9 11 14 14 12 17 12 11 16 15 13 16 19 22 24
15 10 8 6 2 2 4 3 3 3 3 6 4 5 5 6 6 8 9 1 7 7 9 4 4 8 9 9 8 3 9 11 11 10 12 8 11 12 12 15 22 19 18 21 21
15 8 6 4 1 3 2 5 7 4 3 2 3 4 1 7 5 6 4 3 5 5 4 4 0 8 8 7 7 7 11 6 5 7 4 3 7 11 14 22 21 22 19 20 19
12 4 4 1 2 2 1 5 7 3 2 5 1 2 2 2 3 0 3 4 2 5 5 4 5 6 5 7 7 6 2 7 5 3 3 8 4 8 17 13 12 20 22 22 22
9 3 1 1 3 1 5 6 7 3 1 4 2 3 3 2 6 2 1 1 4 5 2 1 4 5 8 7 6 2 6 7 3 5 6 3 3 7 2 15 15 17 23 24 25
5 2 2 3 2 4 5 10 7 1 1 2 2 1 4 2 4 4 3 2 4 5 2 1 7 4 5 9 2 5 1 3 3 1 1 7 6 5 5 6 5 14 27 28 26
6 3 3 8 4 7 14 6 1 2 1 3 2 1 4 2 4 7 8 6 4 4 4 1 3 2 2 2 2 6 5 2 1 2 5 4 6 9 7 4 2 4 3 13 26
8 4 5 5 6 13 8 2 3 1 4 4 1 5 4 4 4 7 5 9 12 8 4 5 4 8 9 5 4 6 6 3 4 3 4 8 6 5 6 5 8 10 5 6 5
11 6 3 5 8 11 4 3 2 3 5 3 2 5 4 6 3 4 11 12 11 14 5 6 5 4 2 6 2 6 5 4 2 6 1 5 6 7 8 5 2 2 3 6 7
12 6 5 4 10 6 0 1 3 3 3 2 4 6 6 7 4 5 5 7 16 15 10 2 3 6 4 2 4 2 2 2 1 2 3 4 6 5 1 7 7 4 5 5 6
13 4 4 6 7 5 2 1 2 6 5 4 5 5 7 7 9 4 5 9 8 9 12 7 5 3 5 7 7 5 2 4 1 4 2 1 2 5 6 9 8 10 8 4 1
10 2 8 10 4 4 2 3 1 4 7 5 5 8 9 10 10 8 8 9 4 14 8 6 3 5 8 5 8 8 9 6 3 4 3 3 5 2 8 8 7 11 8 6 4
9 6 8 9 2 2 3 3 4 5 6 4 5 6 5 6 5 7 6 5 3 3 4 7 5 1 5 2 5 7 9 13 7 5 4 4 4 4 6 4 5 7 5 4 3
8 3 4 8 6 2 4 5 3 9 6 6 7 8 8 10 10 8 9 9 13 7 15 4 3 7 12 5 5 5 12 15 10 5 6 10 3 6 3 4 8 9 12 2 2
9 3 7 4 6 4 2 1 4 4 6 3 4 10 6 4 9 13 13 12 9 18 5 6 4 6 13 7 5 3 9 16 18 14 10 7 15 13 11 10 7 11 19 13 2
6 5 6 4 9 5 5 6 4 2 2 4 6 6 5 6 9 12 9 7 4 6 6 6 1 4 10 3 3 4 11 12 19 18 17 13 18 10 18 24 24 22 22 19 8
16 11 8 7 5 4 3 2 2 3 1 2 3 5 8 5 9 14 14 14 3 2 4 2 4 6 1 7 4 4 13 15 11 14 15 16 19 12 12 10 15 16 15 14 14
Wind_Direction
341 334 343 342 346 348 353 352 343 349 353 344 339 337 329 330 319 329 308 261 230 333 324 211 207 188 185 198 203 194 207 217 234 189 167 138 109 62 98 97 71 72 96 124 151
341 335 338 339 342 344 350 343 345 349 354 351 346 346 342 346 335 12 315 276 232 271 358 216 208 176 160 193 194 198 206 219 233 7 187 146 146 156 136 127 105 99 89 135 155
340 333 327 334 339 342 345 346 338 344 348 354 352 357 354 357 335 358 340 280 201 251 246 213 208 198 169 164 129 197 226 235 211 79 24 125 177 166 156 137 126 105 124 134 157
339 331 329 319 333 334 340 342 343 341 342 352 352 357 6 15 11 360 334 315 190 305 224 198 246 226 174 164 184 317 242 266 35 89 190 279 139 163 213 121 121 113 137 150 160
338 332 330 323 317 329 335 343 343 341 338 347 1 7 23 44 13 348 354 80 202 270 226 223 209 189 194 168 166 230 289 269 296 144 157 265 301 141 107 123 130 115 122 151 172
336 336 331 324 321 325 336 346 359 353 345 349 5 19 333 45 354 349 354 97 26 275 214 210 280 318 293 171 161 198 229 285 266 251 211 264 170 202 139 143 138 133 130 135 177
336 337 336 328 323 324 337 352 358 357 0 5 39 34 30 12 357 350 354 123 43 208 204 150 13 23 348 217 167 151 190 250 189 237 135 266 249 188 181 156 162 156 139 141 165
335 337 337 333 325 325 348 358 359 6 27 46 37 17 52 17 14 357 20 21 71 56 159 189 38 15 312 13 98 143 190 139 315 195 162 232 246 179 235 171 199 191 180 170 169
338 338 339 336 327 326 3 24 38 30 25 42 28 343 41 9 8 358 20 58 97 62 102 190 3 352 347 216 166 210 156 185 214 249 165 224 227 231 207 214 194 216 217 194 187
337 338 337 337 325 335 7 30 26 33 353 349 8 100 26 359 358 11 72 77 96 75 66 57 11 337 319 218 184 197 215 193 185 201 231 215 250 285 264 186 197 212 243 246 200
336 333 339 340 321 14 18 77 345 54 40 56 29 57 7 356 31 47 44 113 117 56 63 27 311 223 224 216 231 213 213 240 194 169 209 221 212 215 244 176 207 227 234 241 243
332 332 338 347 322 62 70 45 73 113 22 51 47 46 31 360 63 48 41 98 114 107 113 161 243 238 225 227 242 241 223 230 75 164 181 235 223 240 249 219 192 212 230 243 239
330 328 339 357 86 97 83 173 144 129 282 49 83 38 12 40 41 37 51 72 148 157 132 190 315 303 273 241 191 224 218 169 167 184 218 301 284 254 228 241 239 212 217 238 247
326 315 333 69 55 58 189 175 165 133 53 352 5 31 333 319 77 54 5 120 161 153 177 231 341 287 261 224 239 223 14 66 320 157 225 163 270 219 229 224 218 225 216 225 240
315 283 300 140 143 9 231 165 153 97 88 317 46 323 330 340 150 167 217 280 179 152 212 117 311 218 252 222 221 304 124 153 241 260 326 251 264 270 232 218 219 211 221 222 226
276 225 170 115 88 216 146 143 125 240 43 345 333 301 221 171 174 158 221 230 290 178 195 263 289 273 249 311 160 92 253 140 112 354 293 230 214 265 255 237 193 199 212 220 224
205 193 191 144 230 168 130 99 106 31 152 284 312 265 308 199 187 205 198 190 197 153 205 10 295 300 86 288 209 217 177 104 320 217 226 218 223 248 285 349 124 127 25 224 214
188 167 178 175 157 147 119 201 65 230 168 256 267 281 251 187 224 203 248 231 224 260 153 165 252 198 179 213 183 212 213 150 224 208 230 196 238 251 255 22 17 212 204 271 280
183 156 145 173 159 143 206 90 149 148 157 226 201 254 238 203 235 226 230 240 226 220 212 196 241 181 239 185 215 220 225 303 319 248 327 192 253 298 260 170 133 192 202 204 248
177 124 213 184 151 145 264 192 161 160 187 188 256 193 299 188 192 195 229 267 225 226 203 222 242 237 141 52 195 296 19 169 203 215 230 263 253 236 171 178 176 120 119 181 196
166 190 221 170 144 232 147 220 192 188 197 225 263 286 281 275 200 203 267 298 202 210 190 146 234 159 133 207 178 154 146 228 266 249 183 293 268 316 100 86 82 75 64 53 71
166 208 190 162 216 215 218 185 224 209 196 256 275 265 267 290 297 281 222 254 120 320 194 214 278 198 211 182 249 240 198 192 183 183 229 133 273 60 98 91 78 121 117 94 75
176 155 172 165 215 191 136 230 240 207 202 218 246 221 307 297 299 278 338 53 327 161 273 176 212 133 163 247 185 217 223 219 218 354 227 171 248 121 108 95 169 167 152 123 75
173 145 154 199 260 289 174 213 220 204 274 264 275 291 278 271 267 265 266 23 339 278 216 224 291 216 218 149 140 195 208 211 190 205 200 220 279 256 149 182 183 212 240 305 101
199 185 170 181 208 198 109 97 232 213 208 224 258 241 323 288 295 300 331 335 330 358 253 164 230 253 259 212 149 169 231 206 207 213 207 211 231 248 274 286 303 250 234 247 222
196 172 149 108 124 180 151 200 234 192 161 252 259 339 343 297 302 314 328 329 291 342 33 351 268 224 238 196 331 238 235 220 219 218 238 256 260 261 282 294 294 289 290 295 296
204 176 147 156 171 165 202 209 106 73 358 288 14 331 302 338 328 299 295 286 239 198 331 341 4 334 204 166 157 252 226 229 218 222 221 227 239 256 258 261 271 276 272 271 276
Height
1514 1512 1508 1505 1501 1497 1494 1492 1490 1487 1485 1482 1479 1476 1474 1472 1470 1470 1471 1472 1472 1472 1470 1474 1476 1480 1483 1486 1489 1489 1494 1493 1485 1482 1487 1487 1494 1498 1500 1502 1504 1506 1507 1513 1516
1513 1511 1508 1504 1501 1498 1494 1491 1490 1488 1485 1482 1479 1476 1474 1472 1471 1471 1471 1469 1470 1473 1470 1470 1474 1478 1483 1486 1488 1488 1490 1485 1478 1484 1485 1487 1495 1498 1501 1505 1505 1508 1510 1512 1515
1511 1509 1506 1504 1500 1498 1494 1491 1489 1487 1485 1482 1479 1477 1474 1474 1473 1472 1471 1469 1469 1472 1470 1471 1471 1477 1481 1485 1486 1486 1487 1481 1481 1484 1486 1491 1493 1497 1499 1504 1504 1509 1510 1513 1515
1510 1507 1505 1502 1499 1497 1494 1491 1488 1486 1485 1482 1480 1477 1475 1475 1478 1473 1472 1469 1470 1471 1472 1473 1473 1475 1476 1482 1488 1492 1489 1484 1490 1490 1495 1495 1494 1496 1497 1502 1506 1508 1510 1513 1516
1508 1506 1502 1500 1497 1496 1494 1491 1489 1486 1485 1482 1480 1478 1476 1476 1477 1475 1471 1469 1469 1472 1470 1473 1472 1473 1472 1477 1485 1495 1493 1491 1494 1494 1497 1499 1496 1497 1500 1503 1506 1508 1509 1513 1516
1506 1503 1501 1498 1496 1495 1493 1491 1489 1486 1484 1482 1481 1479 1478 1478 1478 1476 1474 1472 1474 1474 1473 1474 1474 1473 1473 1476 1488 1491 1496 1499 1497 1495 1496 1497 1499 1498 1500 1504 1507 1509 1511 1512 1515
1504 1502 1499 1496 1495 1494 1493 1491 1489 1486 1484 1482 1481 1481 1481 1483 1479 1477 1477 1475 1475 1476 1476 1476 1477 1475 1474 1475 1480 1488 1500 1503 1501 1502 1496 1496 1499 1498 1499 1501 1506 1509 1510 1511 1516
1503 1500 1497 1495 1494 1493 1492 1491 1489 1487 1485 1484 1483 1482 1483 1482 1480 1476 1474 1475 1477 1477 1477 1478 1478 1478 1477 1475 1477 1486 1497 1501 1496 1496 1498 1503 1504 1495 1498 1503 1505 1507 1509 1512 1513
1501 1499 1496 1494 1493 1492 1491 1491 1490 1488 1486 1485 1485 1484 1484 1484 1483 1480 1478 1479 1478 1478 1479 1481 1481 1482 1480 1478 1483 1484 1495 1504 1505 1502 1499 1503 1502 1493 1496 1500 1501 1503 1505 1508 1510
1500 1498 1495 1493 1492 1491 1490 1490 1490 1488 1486 1485 1487 1487 1485 1485 1483 1483 1481 1482 1483 1481 1481 1483 1483 1484 1482 1485 1495 1490 1491 1488 1495 1500 1499 1505 1500 1492 1492 1495 1496 1500 1503 1505 1506
1498 1497 1494 1492 1491 1491 1490 1490 1493 1493 1489 1490 1491 1488 1488 1486 1485 1485 1484 1484 1485 1485 1489 1491 1494 1489 1485 1482 1476 1478 1483 1482 1483 1490 1498 1496 1491 1494 1493 1494 1496 1499 1501 1502 1504
1497 1495 1493 1492 1491 1490 1491 1491 1492 1494 1493 1492 1491 1489 1489 1487 1486 1487 1487 1488 1487 1492 1495 1498 1491 1483 1480 1478 1479 1482 1484 1485 1489 1491 1496 1489 1491 1490 1488 1488 1490 1495 1496 1498 1500
1495 1493 1492 1491 1491 1491 1492 1491 1492 1493 1493 1492 1492 1491 1491 1490 1489 1489 1487 1487 1488 1490 1491 1496 1492 1486 1482 1479 1482 1481 1485 1484 1488 1488 1488 1490 1494 1488 1483 1484 1486 1487 1490 1494 1495
1493 1492 1492 1491 1493 1491 1492 1491 1492 1493 1496 1494 1492 1492 1493 1491 1491 1490 1489 1490 1489 1490 1492 1492 1490 1488 1484 1483 1482 1486 1475 1483 1487 1490 1499 1487 1507 1483 1477 1477 1478 1481 1483 1488 1492
1492 1491 1490 1490 1491 1492 1491 1491 1493 1495 1490 1494 1492 1492 1491 1491 1492 1491 1490 1491 1490 1491 1494 1494 1490 1490 1488 1483 1481 1484 1476 1484 1488 1492 1494 1493 1505 1485 1468 1476 1473 1474 1479 1483 1487
1490 1490 1489 1490 1491 1490 1489 1491 1495 1497 1498 1496 1492 1489 1489 1489 1490 1490 1491 1490 1489 1487 1492 1494 1493 1490 1486 1482 1480 1483 1485 1485 1490 1496 1515 1495 1497 1488 1474 1467 1464 1467 1472 1476 1480
1488 1489 1489 1489 1491 1489 1490 1493 1496 1490 1499 1495 1489 1489 1487 1485 1487 1489 1487 1489 1489 1496 1499 1494 1490 1486 1487 1488 1486 1487 1491 1507 1514 1511 1513 1480 1491 1479 1462 1462 1463 1466 1468 1470 1474
1487 1488 1489 1489 1488 1490 1491 1494 1492 1485 1496 1491 1489 1488 1488 1483 1482 1485 1484 1485 1484 1482 1486 1498 1495 1488 1484 1487 1488 1489 1490 1497 1502 1505 1497 1481 1491 1477 1461 1460 1462 1463 1467 1470 1472
1485 1486 1488 1488 1488 1490 1492 1490 1487 1488 1489 1486 1485 1488 1481 1478 1482 1481 1482 1481 1478 1479 1483 1485 1486 1480 1481 1481 1484 1488 1494 1485 1504 1492 1502 1488 1476 1465 1459 1461 1463 1465 1468 1471 1473
1484 1486 1487 1487 1488 1490 1490 1486 1483 1483 1484 1485 1484 1477 1476 1474 1482 1480 1476 1468 1470 1471 1474 1481 1487 1482 1482 1482 1484 1486 1486 1497 1506 1513 1494 1482 1477 1475 1459 1462 1464 1466 1468 1471 1473
1483 1486 1485 1485 1488 1489 1491 1481 1479 1481 1484 1485 1480 1477 1475 1473 1474 1476 1475 1466 1464 1463 1469 1477 1484 1484 1485 1483 1482 1489 1492 1494 1488 1491 1504 1494 1480 1465 1459 1463 1465 1469 1471 1472 1473
1481 1483 1482 1484 1488 1482 1482 1480 1479 1480 1482 1483 1481 1480 1478 1474 1471 1469 1470 1466 1465 1467 1469 1471 1482 1480 1478 1478 1479 1477 1483 1488 1492 1489 1489 1499 1488 1460 1462 1464 1466 1471 1472 1473 1474
1476 1478 1481 1483 1482 1480 1478 1478 1479 1479 1478 1478 1478 1475 1472 1473 1475 1465 1464 1464 1468 1469 1471 1471 1480 1475 1476 1482 1479 1480 1479 1479 1485 1489 1494 1498 1485 1462 1463 1465 1467 1469 1469 1470 1471
1473 1477 1480 1481 1477 1475 1474 1474 1475 1477 1476 1475 1475 1474 1473 1472 1469 1465 1464 1465 1469 1467 1468 1473 1469 1464 1462 1462 1466 1477 1472 1472 1481 1487 1483 1479 1471 1463 1464 1465 1466 1468 1468 1468 1469
1466 1463 1464 1475 1472 1472 1473 1472 1472 1473 1475 1475 1473 1471 1470 1472 1470 1467 1466 1466 1469 1470 1467 1475 1471 1469 1459 1456 1464 1468 1469 1469 1476 1478 1478 1471 1469 1464 1461 1460 1462 1463 1465 1467 1465
1459 1459 1462 1465 1467 1470 1472 1469 1470 1470 1475 1472 1471 1470 1474 1475 1473 1474 1474 1475 1473 1475 1475 1478 1468 1472 1461 1462 1467 1469 1465 1461 1463 1466 1469 1468 1463 1460 1459 1459 1459 1460 1461 1461 1462
1453 1453 1455 1464 1466 1468 1467 1466 1469 1474 1474 1474 1476 1476 1475 1475 1475 1474 1474 1475 1476 1478 1479 1480 1476 1472 1457 1463 1471 1467 1462 1455 1455 1457 1460 1465 1456 1456 1458 1457 1457 1457 1457 1457 1457